When you browse on this site, cookies collect data to enhance your experience and personalize the content and advertising you see.
Visit our Privacy Policy to learn more. By continuing to use the site, you agree to this use of cookies and data.
  • En España
  • Lista de países
  • Para 7 días
  • Temperatura del agua
  • El tiempo en el mapa
  • Informadores
  • user-avatar
    Iniciar sesión

    Tiempo cada hora Wagadugu

    Hoy, 10 Abril, Viernes

    Tiempo Temperatura Precipitaciones Viento Presión Humedad
    00:00 +34°C° 0 mm 2 mps 731 mmHg 34%
    01:00 +34°C° 0 mm 3 mps 731 mmHg 37%
    02:00 +33°C° 0 mm 4 mps 730 mmHg 39%
    03:00 +33°C° 0 mm 5 mps 730 mmHg 42%
    04:00 +32°C° 0 mm 5 mps 730 mmHg 45%
    05:00 +32°C° 0 mm 5 mps 731 mmHg 48%
    06:00 +30°C° 0 mm 6 mps 732 mmHg 56%
    07:00 +30°C° 0 mm 7 mps 732 mmHg 54%
    08:00 +32°C° 0 mm 7 mps 733 mmHg 52%
    09:00 +33°C° 0 mm 7 mps 733 mmHg 51%
    10:00 +35°C° 0 mm 7 mps 733 mmHg 44%
    11:00 +38°C° 0 mm 7 mps 733 mmHg 38%
    12:00 +41°C° 0 mm 5 mps 733 mmHg 25%
    13:00 +41°C° 0 mm 4 mps 732 mmHg 23%
    14:00 +41°C° 0 mm 4 mps 731 mmHg 21%
    15:00 +42°C° 0 mm 3 mps 730 mmHg 19%
    16:00 +40°C° 0 mm 3 mps 730 mmHg 19%
    17:00 +40°C° 0 mm 3 mps 730 mmHg 20%
    18:00 +40°C° 0 mm 4 mps 730 mmHg 21%
    19:00 +38°C° 0 mm 3 mps 731 mmHg 25%
    20:00 +36°C° 0 mm 3 mps 731 mmHg 29%
    21:00 +35°C° 0 mm 3 mps 732 mmHg 33%
    22:00 +34°C° 0 mm 3 mps 732 mmHg 33%
    23:00 +34°C° 0 mm 3 mps 732 mmHg 34%

    Mañana, 11 Abril, Sábado

    Tiempo Temperatura Precipitaciones Viento Presión Humedad
    00:00 +33°C° 0 mm 3 mps 731 mmHg 35%
    01:00 +31°C° 0 mm 3 mps 731 mmHg 37%
    02:00 +31°C° 0 mm 3 mps 731 mmHg 39%
    03:00 +30°C° 0 mm 2 mps 731 mmHg 41%
    04:00 +29°C° 0 mm 2 mps 731 mmHg 43%
    05:00 +29°C° 0 mm 2 mps 731 mmHg 44%
    06:00 +29°C° 0 mm 2 mps 732 mmHg 46%
    07:00 +31°C° 0 mm 3 mps 732 mmHg 39%
    08:00 +35°C° 0 mm 3 mps 733 mmHg 32%
    09:00 +37°C° 0 mm 4 mps 734 mmHg 26%
    10:00 +40°C° 0 mm 5 mps 733 mmHg 23%
    11:00 +41°C° 0 mm 6 mps 733 mmHg 20%
    12:00 +44°C° 0 mm 7 mps 732 mmHg 18%
    13:00 +44°C° 0 mm 6 mps 731 mmHg 17%
    14:00 +44°C° 0 mm 6 mps 730 mmHg 16%
    15:00 +45°C° 0 mm 6 mps 730 mmHg 16%
    16:00 +42°C° 0 mm 6 mps 730 mmHg 16%
    17:00 +41°C° 0 mm 5 mps 730 mmHg 17%
    18:00 +40°C° 0 mm 5 mps 730 mmHg 17%
    19:00 +39°C° 0 mm 5 mps 730 mmHg 20%
    20:00 +37°C° 0 mm 4 mps 731 mmHg 22%
    21:00 +35°C° 0 mm 4 mps 732 mmHg 24%
    22:00 +35°C° 0 mm 4 mps 732 mmHg 28%
    23:00 +34°C° 0 mm 4 mps 732 mmHg 32%

    Pasado mañana, 12 Abril, Domingo

    Tiempo Temperatura Precipitaciones Viento Presión Humedad
    00:00 +34°C° 0 mm 4 mps 732 mmHg 36%
    01:00 +33°C° 0 mm 4 mps 732 mmHg 36%
    02:00 +33°C° 0 mm 3 mps 731 mmHg 36%
    03:00 +32°C° 0 mm 2 mps 731 mmHg 37%
    04:00 +31°C° 0 mm 3 mps 731 mmHg 39%
    05:00 +30°C° 0 mm 3 mps 731 mmHg 41%
    06:00 +30°C° 0 mm 3 mps 731 mmHg 44%
    07:00 +33°C° 0 mm 3 mps 732 mmHg 39%
    08:00 +35°C° 0 mm 4 mps 733 mmHg 35%
    09:00 +37°C° 0 mm 4 mps 734 mmHg 31%
    10:00 +40°C° 0 mm 4 mps 733 mmHg 26%
    11:00 +42°C° 0 mm 3 mps 732 mmHg 22%
    12:00 +43°C° 0 mm 3 mps 732 mmHg 17%
    13:00 +44°C° 0 mm 4 mps 731 mmHg 15%
    14:00 +45°C° 0 mm 5 mps 730 mmHg 14%
    15:00 +46°C° 0 mm 5 mps 729 mmHg 12%
    16:00 +45°C° 0 mm 5 mps 729 mmHg 13%
    17:00 +43°C° 0 mm 4 mps 729 mmHg 15%
    18:00 +42°C° 0 mm 4 mps 729 mmHg 16%
    19:00 +39°C° 0 mm 3 mps 729 mmHg 17%
    20:00 +38°C° 0 mm 3 mps 730 mmHg 19%
    21:00 +36°C° 0 mm 3 mps 731 mmHg 20%
    22:00 +36°C° 0 mm 3 mps 730 mmHg 21%
    23:00 +35°C° 0 mm 3 mps 730 mmHg 23%

    13 Abril, Lunes

    Tiempo Temperatura Precipitaciones Viento Presión Humedad
    00:00 +34°C° 0 mm 3 mps 730 mmHg 24%
    01:00 +32°C° 0 mm 2 mps 730 mmHg 26%
    02:00 +32°C° 0 mm 2 mps 730 mmHg 29%
    03:00 +31°C° 0 mm 2 mps 730 mmHg 31%
    04:00 +30°C° 0 mm 2 mps 730 mmHg 34%
    05:00 +30°C° 0 mm 3 mps 730 mmHg 37%
    06:00 +29°C° 0 mm 3 mps 730 mmHg 39%
    07:00 +33°C° 0 mm 3 mps 731 mmHg 36%
    08:00 +35°C° 0 mm 4 mps 731 mmHg 33%
    09:00 +38°C° 0 mm 4 mps 732 mmHg 30%
    10:00 +40°C° 0 mm 3 mps 731 mmHg 25%
    11:00 +41°C° 0 mm 2 mps 731 mmHg 20%
    12:00 +43°C° 0 mm 1 mps 730 mmHg 15%
    13:00 +45°C° 0 mm 2 mps 730 mmHg 13%
    14:00 +45°C° 0 mm 2 mps 729 mmHg 12%
    15:00 +46°C° 0 mm 3 mps 728 mmHg 10%
    16:00 +45°C° 0 mm 4 mps 728 mmHg 12%
    17:00 +43°C° 0 mm 4 mps 728 mmHg 13%
    18:00 +42°C° 0 mm 5 mps 728 mmHg 14%
    19:00 +41°C° 0 mm 4 mps 728 mmHg 16%
    20:00 +38°C° 0 mm 3 mps 729 mmHg 18%
    21:00 +36°C° 0 mm 2 mps 729 mmHg 20%
    22:00 +36°C° 0 mm 3 mps 729 mmHg 22%
    23:00 +35°C° 0 mm 3 mps 730 mmHg 24%

    14 Abril, Martes

    Tiempo Temperatura Precipitaciones Viento Presión Humedad
    00:00 +35°C° 0 mm 3 mps 730 mmHg 26%
    01:00 +34°C° 0 mm 3 mps 729 mmHg 29%
    02:00 +33°C° 0 mm 3 mps 729 mmHg 32%
    03:00 +31°C° 0 mm 2 mps 729 mmHg 35%
    04:00 +31°C° 0 mm 2 mps 729 mmHg 37%
    05:00 +30°C° 0 mm 3 mps 730 mmHg 38%
    06:00 +30°C° 0 mm 3 mps 730 mmHg 40%
    07:00 +34°C° 0 mm 4 mps 731 mmHg 37%
    08:00 +36°C° 0 mm 6 mps 731 mmHg 34%
    09:00 +39°C° 0 mm 7 mps 732 mmHg 31%
    10:00 +41°C° 0 mm 6 mps 731 mmHg 28%
    11:00 +42°C° 0 mm 5 mps 731 mmHg 25%
    12:00 +43°C° 0 mm 4 mps 730 mmHg 22%
    13:00 +43°C° 0 mm 4 mps 730 mmHg 22%
    14:00 +42°C° 0 mm 4 mps 729 mmHg 22%
    15:00 +42°C° 0 mm 4 mps 728 mmHg 21%
    16:00 +41°C° 0 mm 5 mps 728 mmHg 24%
    17:00 +40°C° 0 mm 5 mps 729 mmHg 26%
    18:00 +37°C° 0 mm 5 mps 729 mmHg 29%
    19:00 +37°C° 0 mm 4 mps 729 mmHg 30%
    20:00 +36°C° 0 mm 3 mps 730 mmHg 32%
    21:00 +35°C° 0 mm 3 mps 730 mmHg 33%
    22:00 +35°C° 0.5 mm 3 mps 731 mmHg 36%
    23:00 +34°C° 0.5 mm 2 mps 731 mmHg 38%

    15 Abril, Miércoles

    Tiempo Temperatura Precipitaciones Viento Presión Humedad
    00:00 +32°C° 0.5 mm 2 mps 731 mmHg 41%
    01:00 +33°C° 0.4 mm 3 mps 731 mmHg 41%
    02:00 +32°C° 0.4 mm 4 mps 730 mmHg 42%
    03:00 +32°C° 0.4 mm 5 mps 730 mmHg 43%
    04:00 +32°C° 0.3 mm 5 mps 731 mmHg 43%
    05:00 +32°C° 0.3 mm 5 mps 731 mmHg 43%
    06:00 +30°C° 0.3 mm 5 mps 731 mmHg 43%
    07:00 +32°C° 0.1 mm 6 mps 732 mmHg 41%
    08:00 +33°C° 0.1 mm 7 mps 732 mmHg 38%
    09:00 +34°C° 0.1 mm 8 mps 733 mmHg 36%
    10:00 +37°C° 0 mm 8 mps 732 mmHg 32%
    11:00 +38°C° 0 mm 8 mps 732 mmHg 28%
    12:00 +40°C° 0 mm 8 mps 732 mmHg 24%
    13:00 +40°C° 0 mm 8 mps 731 mmHg 24%
    14:00 +41°C° 0 mm 7 mps 731 mmHg 24%
    15:00 +41°C° 0 mm 7 mps 730 mmHg 23%
    16:00 +39°C° 0 mm 8 mps 730 mmHg 27%
    17:00 +37°C° 0 mm 9 mps 731 mmHg 31%
    18:00 +34°C° 0 mm 10 mps 731 mmHg 35%
    19:00 +33°C° 0 mm 9 mps 731 mmHg 37%
    20:00 +32°C° 0 mm 9 mps 732 mmHg 38%
    21:00 +31°C° 0 mm 8 mps 732 mmHg 39%
    22:00 +30°C° 0 mm 6 mps 732 mmHg 41%
    23:00 +29°C° 0 mm 5 mps 732 mmHg 44%
    Mostrar más